sat.trackr.live / text

‹ back to catalog

STRELA 3

NORAD 37153 · 2010-043B

PAYLOAD ACTIVE UNKNOWN

§ Identity

Operator
Country
CIS
Launch date
2010-09-08
Launch site
PLMSC
Launch vehicle
Mass (kg)
RCS (m²)
0.91

External: N2YO · Heavens-Above · Gunter

§ Orbital elements

Epoch: 2026-05-25T04:02:03.426144Z

Period
116.05 min
Inclination
82.4560°
Eccentricity
0.0008336
Mean motion
12.40791636 rev/d
Perigee alt
1,496.7 km
Apogee alt
1,509.8 km
Semi-major
7,881.4 km
B*
2.3855e-4
RAAN
92.7581°
Arg perigee
126.2051°
Mean anomaly
233.9799°
Rev number
71,151

§ Raw data

STRELA 31 37153U 10043B   26145.16809521  .00000042  00000+0  23855-3 0  99982 37153  82.4560  92.7581 0008336 126.2051 233.9799 12.40791636711511

JSON: /api/v1/satellites/37153 · /tle

For live sub-satellite position, see the globe view (requires WebGL).

§ Visibility from observer

Set your observer location to see the next 7 days of passes ≥ 10°. The values pass through the URL so the page stays shareable.

No JS? Fill the form by hand. The geolocation button needs JavaScript.